Location: Eastchurch
(51.4000°N, 0.8667°E)
Time: 23:38:00
(UTC+00:00)

Okean 2 - Pass Details

Date: 19 January 2026
Orbit: 515 x 525 km, 82.5° (Epoch: 9 February)

Event Time Altitude Azimuth Distance (km) Brightness Sun altitude
Rises 17:24:53 0° 173° (S) 2,636 7.0 -9.3°
Reaches altitude 10° 17:27:04 10° 167° (SSE) 1,751 6.0 -9.7°
Maximum altitude 17:30:44 45° 94° (E) 723 3.5 -10.2°
Drops below altitude 10° 17:34:25 10° 22° (NNE) 1,760 5.5 -10.7°
Enters shadow 17:36:00 - 17° (NNE) 2,398 6.2 -11.0°
